This is the latest recevied weather packets stored in our database for station/object M0JUI-1. If no packets are shown the sender has not sent any weather packets the latest 10 day(s).
| Time | Temp. | Humidity | Pressure | Rain* | Wind** | Luminosity | Snow |
|---|---|---|---|---|---|---|---|
| 1778063787 | 11.67° C | 92% | 1015.5 hPa | 0 mm | - | 763 W/m² | - |
| 1778063476 | 11.67° C | 92% | 1015.6 hPa | 0 mm | - | 744 W/m² | - |
| 1778063175 | 11.11° C | 91% | 1015.7 hPa | 0 mm | - | 742 W/m² | - |
| 1778062875 | 10.56° C | 99% | 1015.5 hPa | 0 mm | - | 716 W/m² | - |
| 1778062575 | 10° C | 99% | 1015.6 hPa | 0 mm | - | 711 W/m² | - |
| 1778062275 | 10° C | 99% | 1015.6 hPa | 0 mm | - | 222 W/m² | - |
| 1778061975 | 9.44° C | 99% | 1015.6 hPa | 0 mm | - | 732 W/m² | - |
| 1778061676 | 9.44° C | 99% | 1015.6 hPa | 0 mm | - | 323 W/m² | - |
| 1778061363 | 9.44° C | 99% | 1015.7 hPa | 0 mm | - | 158 W/m² | - |
| 1778061063 | 8.89° C | 99% | 1015.6 hPa | 0 mm | - | 139 W/m² | - |
| 1778060763 | 8.89° C | 99% | 1015.7 hPa | 0 mm | - | 120 W/m² | - |
| 1778060452 | 9.44° C | 99% | 1015.8 hPa | 0 mm | - | 155 W/m² | - |
| 1778060151 | 9.44° C | 99% | 1015.6 hPa | 0 mm | - | 175 W/m² | - |
| 1778059851 | 10° C | 99% | 1015.7 hPa | 0 mm | - | 102 W/m² | - |
| 1778059539 | 10.56° C | 99% | 1015.8 hPa | 0 mm | - | 631 W/m² | - |
| 1778059240 | 10° C | 99% | 1015.9 hPa | 0 mm | - | 581 W/m² | - |
| 1778058943 | 10° C | 99% | 1015.6 hPa | 0 mm | - | 633 W/m² | - |
| 1778058639 | 10° C | 99% | 1015.8 hPa | 0 mm | - | 636 W/m² | - |
| 1778058340 | 10.56° C | 99% | 1015.6 hPa | 0 mm | - | 599 W/m² | - |
| 1778058045 | 10° C | 99% | 1016 hPa | 0 mm | - | 580 W/m² | - |
| 1778057739 | 10° C | 99% | 1015.8 hPa | 0 mm | - | 593 W/m² | - |
| 1778057442 | 9.44° C | 99% | 1015.9 hPa | 0 mm | - | 562 W/m² | - |
| 1778057139 | 8.89° C | 1% | 1015.8 hPa | 0 mm | - | 507 W/m² | - |
| 1778056840 | 8.33° C | 1% | 1015.8 hPa | 0 mm | - | 317 W/m² | - |
| 1778056539 | 8.33° C | 1% | 1015.8 hPa | 0 mm | - | 165 W/m² | - |
* Rain latest hour (hover to see other rain measurements)
** Current wind speed in m/s (hover to see current wind gust speed)